• In Belarus
  • List of Countries
  • For 7 days
  • Water Temperature
  • Satellite Maps
  • Weather Map
  • Weather Widgets
  • user-avatar
    Login

    Hourly Weather Lisbon

    Today, 22 September, Saturday

    Time Temperature Precipitation Wind Pressure Humidity
    00:00 +19°C° 0 mm 4 mps 761 mmHg 83%
    01:00 +18°C° 0 mm 4 mps 761 mmHg 83%
    02:00 +18°C° 0 mm 4 mps 761 mmHg 84%
    03:00 +18°C° 0 mm 4 mps 761 mmHg 84%
    04:00 +18°C° 0 mm 4 mps 761 mmHg 84%
    05:00 +18°C° 0 mm 4 mps 761 mmHg 83%
    06:00 +20°C° 0 mm 3 mps 761 mmHg 72%
    07:00 +24°C° 0 mm 3 mps 761 mmHg 60%
    08:00 +26°C° 0 mm 3 mps 761 mmHg 48%
    09:00 +30°C° 0 mm 3 mps 761 mmHg 40%
    10:00 +34°C° 0 mm 3 mps 761 mmHg 31%
    11:00 +37°C° 0 mm 3 mps 762 mmHg 23%
    12:00 +37°C° 0 mm 4 mps 761 mmHg 22%
    13:00 +39°C° 0 mm 5 mps 761 mmHg 21%
    14:00 +39°C° 0 mm 5 mps 761 mmHg 21%
    15:00 +36°C° 0 mm 6 mps 761 mmHg 26%
    16:00 +34°C° 0 mm 6 mps 761 mmHg 31%
    17:00 +32°C° 0 mm 7 mps 761 mmHg 36%
    18:00 +29°C° 0 mm 6 mps 761 mmHg 43%
    19:00 +27°C° 0 mm 6 mps 761 mmHg 51%
    20:00 +25°C° 0 mm 5 mps 762 mmHg 59%
    21:00 +23°C° 0 mm 5 mps 762 mmHg 61%
    22:00 +22°C° 0 mm 5 mps 761 mmHg 64%
    23:00 +22°C° 0 mm 4 mps 761 mmHg 66%

    Tomorrow, 23 September, Sunday

    Time Temperature Precipitation Wind Pressure Humidity
    00:00 +22°C° 0 mm 4 mps 761 mmHg 67%
    01:00 +21°C° 0 mm 4 mps 761 mmHg 67%
    02:00 +21°C° 0 mm 4 mps 761 mmHg 68%
    03:00 +21°C° 0 mm 4 mps 761 mmHg 68%
    04:00 +21°C° 0 mm 4 mps 761 mmHg 68%
    05:00 +21°C° 0 mm 4 mps 761 mmHg 67%
    06:00 +23°C° 0 mm 4 mps 761 mmHg 58%
    07:00 +26°C° 0 mm 4 mps 761 mmHg 49%
    08:00 +29°C° 0 mm 4 mps 762 mmHg 40%
    09:00 +33°C° 0 mm 4 mps 762 mmHg 33%
    10:00 +35°C° 0 mm 4 mps 761 mmHg 27%
    11:00 +39°C° 0 mm 5 mps 761 mmHg 20%
    12:00 +40°C° 0 mm 5 mps 761 mmHg 20%
    13:00 +40°C° 0 mm 6 mps 761 mmHg 19%
    14:00 +41°C° 0 mm 6 mps 760 mmHg 19%
    15:00 +39°C° 0 mm 7 mps 760 mmHg 23%
    16:00 +36°C° 0 mm 7 mps 760 mmHg 27%
    17:00 +34°C° 0 mm 8 mps 760 mmHg 31%
    18:00 +31°C° 0 mm 8 mps 760 mmHg 39%
    19:00 +28°C° 0 mm 7 mps 761 mmHg 47%
    20:00 +26°C° 0 mm 7 mps 761 mmHg 55%
    21:00 +24°C° 0 mm 6 mps 761 mmHg 59%
    22:00 +23°C° 0 mm 6 mps 761 mmHg 62%
    23:00 +23°C° 0 mm 5 mps 760 mmHg 66%

    Day after tomorrow, 24 September, Monday

    Time Temperature Precipitation Wind Pressure Humidity
    00:00 +22°C° 0 mm 5 mps 760 mmHg 67%
    01:00 +22°C° 0 mm 4 mps 760 mmHg 67%
    02:00 +22°C° 0 mm 4 mps 760 mmHg 68%
    03:00 +22°C° 0 mm 4 mps 760 mmHg 67%
    04:00 +22°C° 0 mm 4 mps 760 mmHg 65%
    05:00 +22°C° 0 mm 3 mps 760 mmHg 64%
    06:00 +25°C° 0 mm 3 mps 760 mmHg 54%
    07:00 +28°C° 0 mm 3 mps 760 mmHg 44%
    08:00 +30°C° 0 mm 3 mps 760 mmHg 34%
    09:00 +34°C° 0 mm 3 mps 760 mmHg 28%
    10:00 +37°C° 0 mm 3 mps 760 mmHg 23%
    11:00 +40°C° 0 mm 3 mps 760 mmHg 17%
    12:00 +40°C° 0 mm 3 mps 760 mmHg 18%
    13:00 +42°C° 0 mm 4 mps 759 mmHg 18%
    14:00 +42°C° 0 mm 4 mps 759 mmHg 18%
    15:00 +40°C° 0 mm 5 mps 759 mmHg 21%
    16:00 +37°C° 0 mm 5 mps 759 mmHg 24%
    17:00 +35°C° 0 mm 5 mps 758 mmHg 28%
    18:00 +33°C° 0 mm 5 mps 759 mmHg 34%
    19:00 +30°C° 0 mm 4 mps 759 mmHg 41%
    20:00 +28°C° 0 mm 4 mps 759 mmHg 47%
    21:00 +27°C° 0 mm 4 mps 759 mmHg 50%
    22:00 +26°C° 0 mm 3 mps 759 mmHg 53%
    23:00 +26°C° 0 mm 3 mps 759 mmHg 55%

    25 September, Tuesday

    Time Temperature Precipitation Wind Pressure Humidity
    00:00 +25°C° 0 mm 2 mps 759 mmHg 56%
    01:00 +25°C° 0 mm 2 mps 759 mmHg 58%
    02:00 +24°C° 0 mm 2 mps 758 mmHg 59%
    03:00 +24°C° 0 mm 2 mps 758 mmHg 58%
    04:00 +24°C° 0 mm 2 mps 758 mmHg 58%
    05:00 +23°C° 0 mm 2 mps 758 mmHg 58%
    06:00 +25°C° 0 mm 2 mps 759 mmHg 52%
    07:00 +28°C° 0 mm 2 mps 759 mmHg 46%
    08:00 +30°C° 0 mm 2 mps 759 mmHg 40%
    09:00 +32°C° 0 mm 2 mps 759 mmHg 35%
    10:00 +34°C° 0 mm 3 mps 759 mmHg 31%
    11:00 +36°C° 0 mm 3 mps 759 mmHg 26%
    12:00 +37°C° 0 mm 3 mps 759 mmHg 26%
    13:00 +37°C° 0 mm 4 mps 759 mmHg 26%
    14:00 +37°C° 0 mm 4 mps 758 mmHg 26%
    15:00 +35°C° 0 mm 4 mps 758 mmHg 30%
    16:00 +34°C° 0 mm 4 mps 758 mmHg 33%
    17:00 +31°C° 0 mm 3 mps 759 mmHg 37%
    18:00 +29°C° 0 mm 3 mps 759 mmHg 44%
    19:00 +27°C° 0 mm 2 mps 759 mmHg 52%
    20:00 +25°C° 0 mm 2 mps 760 mmHg 59%
    21:00 +24°C° 0 mm 2 mps 760 mmHg 62%
    22:00 +24°C° 0 mm 1 mps 760 mmHg 64%
    23:00 +23°C° 0 mm 1 mps 760 mmHg 67%

    26 September, Wednesday

    Time Temperature Precipitation Wind Pressure Humidity
    00:00 +23°C° 0 mm 1 mps 760 mmHg 66%
    01:00 +23°C° 0 mm 1 mps 760 mmHg 66%
    02:00 +23°C° 0 mm 1 mps 760 mmHg 66%
    03:00 +23°C° 0 mm 1 mps 760 mmHg 66%
    04:00 +23°C° 0 mm 1 mps 760 mmHg 66%
    05:00 +23°C° 0 mm 1 mps 760 mmHg 67%
    06:00 +25°C° 0 mm 1 mps 760 mmHg 61%
    07:00 +27°C° 0 mm 1 mps 761 mmHg 55%
    08:00 +29°C° 0 mm 1 mps 761 mmHg 49%
    09:00 +31°C° 0 mm 1 mps 761 mmHg 42%
    10:00 +33°C° 0 mm 1 mps 761 mmHg 36%
    11:00 +36°C° 0 mm 1 mps 761 mmHg 30%
    12:00 +37°C° 0 mm 2 mps 761 mmHg 28%
    13:00 +38°C° 0 mm 2 mps 760 mmHg 27%
    14:00 +38°C° 0 mm 3 mps 760 mmHg 26%
    15:00 +36°C° 0 mm 3 mps 760 mmHg 31%
    16:00 +34°C° 0 mm 4 mps 760 mmHg 35%
    17:00 +33°C° 0 mm 4 mps 760 mmHg 40%
    18:00 +30°C° 0 mm 4 mps 761 mmHg 46%
    19:00 +28°C° 0 mm 4 mps 761 mmHg 52%
    20:00 +26°C° 0 mm 4 mps 762 mmHg 58%
    21:00 +25°C° 0 mm 3 mps 762 mmHg 60%
    22:00 +25°C° 0 mm 3 mps 762 mmHg 62%
    23:00 +24°C° 0 mm 3 mps 762 mmHg 65%

    27 September, Thursday

    Time Temperature Precipitation Wind Pressure Humidity
    00:00 +24°C° 0 mm 3 mps 762 mmHg 66%
    01:00 +22°C° 0 mm 3 mps 762 mmHg 67%
    02:00 +23°C° 0 mm 2 mps 761 mmHg 69%
    03:00 +23°C° 0 mm 2 mps 761 mmHg 69%
    04:00 +23°C° 0 mm 2 mps 761 mmHg 70%
    05:00 +21°C° 0 mm 2 mps 761 mmHg 71%
    06:00 +24°C° 0 mm 2 mps 762 mmHg 64%
    07:00 +26°C° 0 mm 2 mps 762 mmHg 57%
    08:00 +28°C° 0 mm 3 mps 762 mmHg 50%
    09:00 +30°C° 0 mm 2 mps 762 mmHg 45%
    10:00 +34°C° 0 mm 2 mps 762 mmHg 39%
    11:00 +36°C° 0 mm 2 mps 762 mmHg 34%
    12:00 +36°C° 0.1 mm 2 mps 761 mmHg 32%
    13:00 +36°C° 0.1 mm 3 mps 761 mmHg 31%
    14:00 +37°C° 0.1 mm 4 mps 760 mmHg 30%
    15:00 +34°C° 0.3 mm 4 mps 760 mmHg 37%
    16:00 +32°C° 0.3 mm 5 mps 760 mmHg 43%
    17:00 +29°C° 0.3 mm 5 mps 760 mmHg 49%
    18:00 +28°C° 0.2 mm 5 mps 760 mmHg 51%
    19:00 +27°C° 0.2 mm 5 mps 760 mmHg 52%
    20:00 +26°C° 0.2 mm 5 mps 761 mmHg 54%
    21:00 +26°C° 0.2 mm 5 mps 760 mmHg 54%
    22:00 +26°C° 0.2 mm 4 mps 760 mmHg 55%
    23:00 +25°C° 0.2 mm 4 mps 760 mmHg 56%
    Show more